Tracking 28790 objects as of 19-Apr-2024
HD Live streaming from Space Station
objects crossing your sky now

COSMOS 1188 DEB

Track COSMOS 1188 DEB now!


NORAD ID: 26677
Int'l Code: 1980-050G
Perigee: 4,748.4 km
Apogee: 36,980.9 km
Inclination: 72.6 °
Period: 745.5 minutes
Semi major axis: 27235 km
RCS: 0.177 m2 (medium)
Launch date: June 14, 1980
Source: Commonwealth of Independent States (former USSR) (CIS)
Launch site: PLESETSK MISSILE AND SPACE COMPLEX (PKMTR)

Note: This is SATELLITE DEBRIS
Your satellite tracking list
Your tracking list is empty




NASA's NSSDC Master Catalog

Two Line Element Set (TLE):
1 26677U 80050G   24109.69169916 -.00000146  00000-0  00000+0 0  9995
2 26677  72.5515 214.6243 5917323 185.8725 192.4644  1.93150608213833
Source of the keplerian elements: AFSPC